www.pogodaiklimat.ru

Погода и климат >> Архив погоды >> Россия >> Чукотка >> Валькаркай


ПОГОДА в Валькаркае

  • Прогноз погоды в Валькаркае
  • Монитор погоды в Валькаркае

АРХИВ ПОГОДЫ в Валькаркае

Время (UTC), дата Ветер
(напр.,м/с)
 
Видим.   Явления Облачность Т
(С)
Тd
(С)
f
(%)
Тe
(С)
Тes
(С)
Комфортность P
(гПа)
Po
(гПа)
Тmin
(С)
Tmax
(С)
R
(мм)
R24
(мм)
S
(см)
06 19.08 З 1
{2}
20 км 9/1 1000 м
[Sc Ac trans Ci fib]
+8.7 +5.6 81 +8 +9 1026.1 1025.6
09 19.08 В 3
{5}
20 км 3/0
[Ac trans Ci fib]
+5.6 +4.7 94 +2 +2 1026.4 1025.9 +11.1
12 19.08 В 2
{4}
20 км 4/0
[Ac trans Ci fib]
+3.9 +3.4 97 +1 +1 1026.4 1025.9
15 19.08 ЮВ 3
{5}
500 м туман ?/? +3.3 +3.3 100 -1 -1 1026.3 1025.8
18 19.08 ЮЗ 1
{5}
700 м туман ?/? +1.7 +1.7 100 -0 -0 1026.6 1026.1
21 19.08 В 2
{4}
50 км {туман} 1/0
[Ci fib]
+6.1 +5.0 93 +4 +7 1026.2 1025.7 +1.5
00 20.08 СВ 2
{3}
50 км {туман} 6/0
[Ci]
+5.7 +3.8 88 +3 +8 1025.6 1025.1
03 20.08 С 1
{3}
50 км 6/0
[Ci sp]
+7.1 +4.6 84 +6 +11 1024.7 1024.2
06 20.08 В 3
{4}
50 км 6/0
[Ci sp]
+8.1 +5.7 85 +5 +6 1023.6 1023.1
09 20.08 ЮВ 2
{5}
50 км 6/0
[Ci fib]
+6.7 +5.8 94 +4 +4 1022.8 1022.3 +9.0
12 20.08 штиль 0
{3}
20 км 8/0
[Ac trans Ci fib]
+4.9 +4.2 95 +4 +4 1021.8 1021.3
15 20.08 С 1
{4}
20 км 8/0
[As trans Ci ing]
+6.2 +5.1 93 +5 +5 1020.5 1020.0
18 20.08 Ю 1
{3}
20 км 8/0
[Ac trans]
+8.5 +6.6 88 +8 +8 1019.4 1018.9
21 20.08 штиль 0
{3}
20 км 8/0
[Ac trans Ci fib]
+9.1 +6.5 84 +8 +11 1018.6 1018.1 +4.6
00 21.08 СВ 2
{3}
50 км 8/0
[Cc]
+10.2 +6.6 78 +9 +14 1017.9 1017.4
03 21.08 СВ 2
{4}
50 км 9/0
[Ci]
+10.9 +7.6 80 +10 +13 1016.9 1016.4
06 21.08 В 2
{4}
50 км 8/0
[Ci]
+10.6 +7.3 80 +9 +10 1015.8 1015.3
09 21.08 З 2
{3}
50 км 6/3 200 м
[St Ac trans Cc]
+8.2 +7.1 93 +6 +6 1015.7 1015.2 +12.0
12 21.08 СЗ 3
{6}
500 м туман ?/? +5.1 +5.1 100 +1 +1 1016.1 1015.6
15 21.08 СЗ 3
{6}
500 м туман ?/? +4.3 +4.3 100 0 0 1016.4 1015.9
18 21.08 С 5
{6}
900 м слаб. морось {туман} туман ?/? +3.2 +3.2 100 -2 -2 1017.6 1017.1
21 21.08 СВ 4
{6}
900 м слаб. морось {туман} туман ?/? +3.3 +3.3 100 -2 -2 1019.2 1018.7 +2.6 0.1
00 22.08 СВ 1
{6}
20 км {морось, туман} 10/10 200 м
[St]
+4.4 +3.9 97 +3 +3 1020.4 1019.9
03 22.08 С 4
{6}
20 км 10/10 200 м
[St]
+4.5 +3.5 93 0 0 1021.8 1021.3
06 22.08 СВ 4
{5}
20 км 10/10 200 м
[St]
+4.6 +3.6 93 0 0 1022.6 1022.1
09 22.08 СВ 3
{5}
20 км 10/10 200 м
[St]
+4.4 +3.7 95 +1 +1 1023.5 1023.0 +4.7 0.0
12 22.08 С 1
{4}
20 км 10/10 200 м
[St]
+3.6 +3.1 97 +2 +2 1023.6 1023.1
15 22.08 С 1
{3}
20 км 10/10 200 м
[St]
+3.5 +3.0 97 +2 +2 1023.8 1023.3
18 22.08 З 1
{3}
20 км 9/3 200 м
[St Ac trans]
+4.1 +3.4 95 +3 +3 1023.7 1023.2
21 22.08 СЗ 2
{3}
20 км 9/0 200 м
[Ac trans]
+5.7 +3.1 83 +3 +5 1023.7 1023.2 +3.3
00 23.08 СЗ 3
{4}
20 км 9/0
[Ac As]
+6.7 +3.1 78 +4 +5 1023.3 1022.8
03 23.08 СЗ 4
{6}
50 км 6/4
[Cb calv Ci fib]
+7.5 +3.8 77 +4 +6 1022.7 1022.2
06 23.08 С 2
{6}
50 км 3/0
[Ac trans Ci]
+6.6 +3.3 79 +4 +5 1021.8 1021.3
09 23.08 В 1
{3}
20 км 4/1 200 м
[St Ci fib]
+5.2 +3.0 86 +4 +4 1021.1 1020.6 +7.6
12 23.08 штиль 0
{4}
500 м туман ?/? +2.0 +2.0 100 +1 +1 1020.0 1019.5
15 23.08 Ю 1
{4}
500 м туман ?/? +2.3 +2.3 100 0 0 1018.9 1018.4
18 23.08 В 2
{4}
600 м туман ?/? +2.2 +2.2 100 -1 -1 1017.4 1016.9
21 23.08 В 5
{7}
900 м туман ?/? +3.9 +3.9 100 -1 -1 1016.0 1015.5 +1.2
00 24.08 В 5
{7}
20 км {туман} 8/5 200 м
[St Ac trans Ci fib]
+5.3 +4.4 94 +1 +2 1014.6 1014.1
03 24.08 В 6
{8}
20 км 8/4 200 м
[St Ac trans]
+5.8 +4.4 91 +1 +1 1012.9 1012.4
06 24.08 В 6
{9}
20 км 8/3 200 м
[St Ac trans Ci fib]
+6.1 +4.7 91 +1 +1 1011.6 1011.1
09 24.08 В 8
{10}
20 км 8/1 200 м
[St Ac trans Ci fib]
+5.3 +4.8 97 -1 -1 1010.7 1010.2 +6.5
12 24.08 В 4
{11}
500 м туман ?/? +3.3 +3.3 100 -2 -2 1009.4 1008.9
15 24.08 Ю 1
{9}
500 м туман ?/? +1.3 +1.3 100 -1 -1 1008.8 1008.3
18 24.08 штиль 0
{2}
20 км в посл. час туман 1/1 200 м
[St]
+1.3 +0.8 96 0 0 1007.9 1007.4
21 24.08 В 3
{4}
20 км ясно +4.9 +4.4 97 +1 +3 1007.6 1007.1 -0.6
00 25.08 В 3
{5}
50 км ясно +7.6 +4.4 80 +5 +9 1007.2 1006.7
03 25.08 СВ 2
{6}
50 км ясно +6.5 +4.4 86 +4 +8 1026.7 1006.2
06 25.08 В 3
{4}
50 км 8/0
[Ac trans Ci fib]
+6.4 +4.8 89 +3 +4 1006.1 1005.6
09 25.08 В 3
{5}
20 км 8/0
[Ac trans Ci fib]
+5.8 +4.9 94 +2 +2 1005.7 1005.2 +8.5
12 25.08 В 2
{5}
20 км 8/0
[Ac trans Ci fib]
+4.3 +3.8 97 +1 +1 1005.0 1004.5
15 25.08 н/о 1003.9
18 25.08 В 3
{4}
20 км 6/0
[Ac trans Ci fib]
+5.7 +5.0 95 +2 +2 1002.6 1002.1
21 25.08 В 4
{5}
20 км 10/0
[Ac trans Cs]
+6.3 +4.7 89 +2 +4 1002.3 1001.8 +2.9
00 26.08 В 4
{5}
7000 м слаб. ливневой дождь {гроза} 10/10 600 м
[Cb cap]
+6.2 +5.5 95 +2 +2 1001.9 1001.5
03 26.08 ЮВ 2
{6}
10 км слаб. ливневой дождь 10/8 600 м
[Cb cap Ac As]
+8.6 +8.0 96 +7 +7 1001.9 1001.4

 

Местоположение метеостанции Валькаркай (Чукотка, Россия): широта 70.08 долгота 170.90 высота над уровнем моря 6 м.

В архиве по умолчанию представлена погода в Валькаркае за последнюю неделю. Архивные данные за месяц целиком и за предыдущие месяцы, начиная с января 2011 года, Вы можете получить, выбрав интересующий диапазон дат из раскрывающегося списка и нажав кнопку "Ввод!".


*Определитесь, кто Вы:
робот инопланетянин человек

Внимание! Время в таблицах - всемирное. Для получения местного времени необходимо прибавить поправку, которая равна 12 ч.

Смотрите также архив погоды в соседних городах и на ближайших метеорологических станциях:

Погода в Певеке (Чукотка, Россия) (50 км)
Погода на 21 км (Чукотка, Россия) (50 км)
Погода на Айон Острове (Чукотка, Россия) (115 км)
Погода в Комсомольской (Чукотка, Россия) (129 км)
Погода в Чауне (Чукотка, Россия) (134 км)
Погода в Паляваам-Глубокой (Чукотка, Россия) (163 км)
Погода в Раучуе (Чукотка, Россия) (181 км)
Погода на Мысе Биллингс (Чукотка, Россия) (184 км)
Погода в Майской (Чукотка, Россия) (196 км)
Погода в Билибино (Чукотка, Россия) (288 км)

Пояснения к столбцам:

Ветер - указаны скорость ветра в м/с - средняя за 10 мин, порывы в срок и между сроками (в фигурных скобках) и направление, откуда дует ветер: С - северный, СВ - северо-восточный, В - восточный, ЮВ - юго-восточный, Ю - южный, ЮЗ - юго-западный, З - западный, СЗ - северо-западный.
Видимость - горизонтальная дальность видимости в метрах или километрах. При видимости от 1 до 10 км при отсутствии осадков обычно наблюдается дымка, при ухудшении видимости до 1 км и менее - туман. В сухую погоду видимость может ухудшаться дымом, пылью или мглою.
Явления - указаны атмосферные явления, наблюдавшиеся в срок или в последний час перед сроком; фигурными скобками обозначены явления, наблюдавшиеся между сроками (за 1-3 часа до срока); квадратными скобками обозначены град или гололедные отложения с указанием их диаметра в мм.
Облачность - указаны через наклонную черту общая и нижняя облачность в баллах и высота нижней границы облаков в метрах; квадратными скобками обозначены формы облаков: Ci - перистые, Cs - перисто-слоистые, Cc - перисто-кучевые, Ac - высококучевые, As - высокослоистые, Sc - слоисто-кучевые, Ns - слоисто-дождевые, Cu - кучевые, Cb - кучево-дождевые. Подробнее классификацию облаков см. в Атласе облаков (PDF).
T - Температура воздуха - температура, измеренная на высоте 2 м над землей.
Td - Температура точки росы - температура, при понижении до которой содержащийся в воздухе водяной пар достигнет насыщения.
f - Относительная влажность воздуха - влажноcть воздуха, измеренная на высоте 2 м над землей.
Te - Эффективная температура - температура, которую ощущает одетый по сезону человек в тени. Характеристика душности погоды. При расчете учитывается влияние влажности воздуха и скорости ветра на теплоощущения человека.
Tes - Эффективная температура на солнце - температура, которую ощущает человек, с поправкой на солнечный нагрев. Характеристика знойности погоды. Зависит от высоты солнца над горизонтом, облачности и скорости ветра. Ночью, в пасмурную погоду, а также при ветре 12 м/с и более поправка равна нулю.
P - Атмосферное давление - приведенное к уровню моря атмосферное давление.
Po - Атмосферное давление - измеренное на уровне метеостанции атмосферное давление.
Tmin - Минимальная температура - минимум температуры воздуха на высоте 2 м над землей.
Tmax - Максимальная температура - максимум температуры воздуха на высоте 2 м над землей.
R - Количество осадков - Количество выпавших осадков за период времени, мм. При наведении курсора мыши на число - период времени, за который выпало указанное количество осадков.
R24 - Количество осадков - Количество выпавших осадков за 24 часа, мм.
S - Снежный покров - Высота снежного покрова, см. При наведении курсора мыши на число - состояние снежного покрова и степень покрытия местности в баллах.